This demonstration page uses our WeatherBlox Daily Observations layout. Learn more.

Left ArrowRight Arrow

Hourly Observations for August 23, 2022

Temp ( °F °C ) Dew Point ( °F °C ) Humidity (%) Winds ( mph kmh ) Pressure ( in mb ) Visibility ( mi km ) Precip ( " mm )
12:56 am 00:56 Clear 69 20.4 61 16.2 77 77 Calm 30.05 1018 10 16 0.00 0.00
1:56 am 01:56 Clear 68 20 60 15.6 76 76 Calm 30.04 1017 10 16 0.00 0.00
2:56 am 02:56 Clear 67 19.3 60 15.4 78 78 Calm 30.03 1017 10 16 0.00 0.00
3:56 am 03:56 Clear 66 18.7 58 14.6 77 77 ESE 3 6 30.03 1017 10 16 0.00 0.00
4:56 am 04:56 Clear 65 18.6 59 14.9 79 79 Calm 30.03 1017 10 16 0.00 0.00
5:56 am 05:56 Clear 65 18.4 59 14.9 80 80 Calm 30.03 1017 10 16 0.00 0.00
6:56 am 06:56 Sunny 64 17.5 59 15.1 86 86 Calm 30.04 1017 10 16 0.00 0.00
7:56 am 07:56 Sunny 66 18.7 60 15.7 83 83 ESE 3 6 30.06 1018 10 16 0.00 0.00
8:56 am 08:56 undefined 70 21.3 62 16.5 74 74 Calm 30.06 1018 10 16 0.00 0.00
9:06 am 09:06 Sunny 73 23 63 17 69 69 ESE 3 6 30.01 1016 10 16 0.00 0.00
9:56 am 09:56 Sunny 73 23 63 17 69 69 SSE 7 11 30.02 1017 10 16 0.00 0.00
10:56 am 10:56 undefined 78 25.8 65 18.2 63 63 S 3 6 30.05 1018 10 16 0.00 0.00
11:56 am 11:56 Mostly Sunny 82 28 61 16 48 48 S 7 11 29.98 1015 10 16 0.00 0.00
12:56 pm 12:56 Sunny 86 30 59 15 40 40 S 8 13 29.96 1015 10 16 0.00 0.00
1:56 pm 13:56 undefined 87 30.5 62 16.5 43 43 SSE 6 9 30.01 1016 10 16 0.00 0.00
2:56 pm 14:56 Sunny 90 32 61 16 38 38 S 6 9 29.93 1014 10 16 0.00 0.00
4:55 pm 16:55 Mostly Sunny 89 31.6 59 15.1 37 37 S 7 11 29.96 1015 10 16 0.00 0.00
5:55 pm 17:55 Mostly Sunny 88 30.9 63 17.2 44 44 SSE 14 22 29.96 1015 10 16 0.00 0.00
6:55 pm 18:55 Mostly Sunny 85 29.6 62 16.7 46 46 SSE 9 15 29.95 1014 10 16 0.00 0.00
7:55 pm 19:55 Mostly Sunny 82 27.8 63 17.3 53 53 SSE 8 13 29.95 1014 10 16 0.00 0.00
8:55 pm 20:55 Partly Cloudy 79 25.9 63 17.2 59 59 SSE 9 15 29.93 1014 10 16 0.00 0.00
9:55 pm 21:55 Partly Cloudy 76 24.7 63 17.4 64 64 SSE 5 7 29.95 1014 10 16 0.00 0.00
10:55 pm 22:55 Clear 76 24.4 64 17.6 66 66 SSW 7 11 29.96 1015 10 16 0.00 0.00
11:55 pm 23:55 Clear 74 23.3 63 17.3 69 69 S 6 9 29.97 1015 10 16 0.00 0.00

Powered by AerisWeather